Location: Aulus
(42.7909°N, 1.3399°E)
Time: 06:35:43
(UTC+00:00)

deb Kosmos- 1980 - Pass Details

Date: 22 October 2025
Orbit: 834 x 854 km, 71.0° (Epoch: 17 November)

Event Time Altitude Azimuth Distance (km) Brightness Sun altitude
Rises 20:12:35 0° 326° (NW) 3,395 ? -35.5°
Reaches altitude 10° 20:15:17 10° 316° (NW) 2,455 ? -36.0°
Enters shadow 20:19:48 30° 263° (W) 1,456 ? -36.7°
